User: anonymous   Login
Location: Unspecified
(0.0000°N, 0.0000°E)
Time: 07:21:24
(UTC+00:00)
Language:

Himawari - Orbit

View from above orbital plane
View from above orbital plane
View from above satellite
View from above satellite

Ground track
Ground track

The orbit is defined by the following mean orbital elements,

1 10143U          26106.86391193 +.00000000 +00000-0 +00000-0 0 00007
2 10143   6.6637 292.9964 0014911 245.9444 315.2646  0.99253062    01
Epoch (UTC): 16 April 2026 20:44:01
Eccentricity: 0.0014911
inclination: 6.6637°
perigee height: 36011 km
apogee height: 36138 km
right ascension of ascending node: 292.9964°
argument of perigee: 245.9444°
revolutions per day: 0.99253062
mean anomaly at epoch: 315.2646°

The dashed part of the orbit path shows where the satellite is in the earth's shadow,  

DLR